GEFSSGP_con_prob3kmehi_222.txt.gz
EHI
0 0 0 0 0 0 0 0 0 1 3 4 6 9 13 12 7 2 2 5 12 19 25 37 51 58 52 44 39 33 24 18 17 15 15 18 17 13 10 9 9 8 7 5 4 3 2 2 2
0 0 0 0 0 0 0 0 0 1 3 6 8 12 15 15 8 2 2 6 13 18 23 34 50 57 52 44 40 35 27 21 18 16 15 15 14 11 8 7 6 6 5 3 1 1 1 1 1
0 0 0 0 0 0 0 0 1 3 5 9 12 13 13 11 6 3 4 9 14 17 22 33 49 56 52 45 40 36 29 22 18 15 14 13 12 10 7 5 4 4 2 1 0 0 0 0 0
0 0 0 0 0 0 0 1 3 5 8 12 13 13 9 6 5 6 10 13 16 18 24 35 48 53 51 45 39 34 28 22 17 14 13 13 11 9 6 5 4 3 1 0 0 0 0 0 0
0 0 0 0 0 0 0 1 4 9 13 14 14 12 10 8 10 14 15 15 17 21 25 35 46 50 49 46 40 33 27 22 17 15 14 14 12 9 7 6 5 4 2 1 0 0 0 0 0
0 0 0 0 0 0 0 1 5 11 15 15 12 11 10 11 16 20 18 17 19 23 25 31 40 46 48 48 41 32 25 21 18 16 15 15 13 9 6 6 6 5 2 1 0 0 0 0 0
0 0 0 0 0 0 0 1 5 11 13 12 9 9 9 12 17 21 23 25 26 26 26 27 31 37 42 43 39 31 24 21 19 17 15 14 12 9 6 5 5 3 2 1 0 0 0 0 0
0 0 0 0 0 0 0 2 6 10 11 9 8 7 8 13 20 26 30 33 33 31 28 27 27 29 32 34 32 28 23 20 19 16 12 11 10 9 6 4 3 3 2 2 1 1 0 0 0
0 0 0 0 0 0 1 2 6 10 12 11 9 9 12 20 27 31 35 37 36 32 28 26 25 25 27 28 26 23 20 18 16 14 11 11 10 9 6 4 3 3 3 3 3 2 1 0 0
0 0 0 0 0 0 2 3 6 11 13 11 11 13 20 26 30 32 34 36 33 28 26 24 22 21 23 23 21 19 17 15 15 14 13 13 11 8 6 5 4 4 2 2 3 3 2 0 0
0 0 0 0 0 0 1 3 6 10 10 8 9 16 24 27 26 26 28 31 30 25 23 22 20 18 17 18 17 16 14 13 14 14 14 13 11 8 6 6 6 4 2 1 1 1 1 0 0
0 0 0 0 0 0 1 3 5 7 8 7 9 15 21 23 21 19 20 24 28 27 24 23 21 18 15 15 15 13 12 12 13 13 13 12 9 7 6 6 6 5 3 1 0 0 0 0 0
0 0 0 0 0 0 1 3 4 6 9 10 11 14 17 20 19 17 15 19 26 29 27 26 23 19 16 15 14 12 11 12 13 14 12 10 8 7 7 6 6 6 4 2 1 0 0 0 0
0 0 0 0 0 0 1 2 3 5 8 10 11 11 13 16 18 16 14 18 25 27 27 27 26 22 18 16 14 12 11 11 13 14 13 10 9 8 7 6 6 5 4 2 1 0 0 0 0
0 0 0 0 0 0 0 1 1 2 4 7 10 11 11 12 13 13 14 20 26 26 24 25 26 24 20 16 14 12 11 11 12 13 12 10 8 8 6 5 5 4 3 3 1 1 0 0 0
0 0 0 0 0 0 0 0 0 1 2 5 9 11 12 11 11 11 15 22 26 25 22 21 23 23 20 17 14 12 11 10 10 11 10 8 7 6 5 4 4 4 3 3 3 2 1 0 0
0 0 0 0 0 0 0 0 0 1 2 5 8 12 13 11 10 11 14 20 23 22 20 19 20 20 19 17 15 12 10 8 8 8 8 6 5 5 5 4 4 5 4 3 3 2 1 0 0
0 0 0 0 0 0 0 0 0 1 4 8 10 12 12 10 9 10 12 15 18 17 16 16 17 17 15 14 14 12 9 7 7 8 6 5 4 5 5 4 4 5 5 4 4 3 1 0 1
0 0 0 0 0 0 0 0 0 2 5 9 11 11 10 8 8 9 12 14 14 12 12 13 15 14 11 10 11 9 7 7 7 7 6 5 5 5 3 3 4 4 5 5 4 4 3 1 1
0 0 0 0 0 0 1 0 0 1 4 8 10 9 8 7 8 11 13 14 13 11 10 11 12 11 8 8 8 7 6 6 5 5 5 5 7 6 3 3 3 3 3 3 3 3 3 2 1
0 0 0 0 0 0 0 0 0 1 4 7 9 9 7 5 7 11 13 13 12 11 10 10 10 8 8 9 10 9 7 6 3 3 3 5 6 6 4 3 2 3 3 1 1 2 3 3 2
0 0 0 0 0 0 0 0 0 1 4 7 9 9 7 6 7 9 10 11 11 11 11 11 8 6 6 9 11 11 9 5 2 1 2 3 4 4 4 4 3 3 3 2 1 1 2 3 3
0 0 0 0 0 0 0 0 0 1 2 5 8 9 7 6 7 8 9 10 12 13 12 10 7 4 4 7 8 9 8 5 2 1 1 3 3 3 4 4 3 3 3 3 2 1 1 3 3
0 0 0 0 0 0 0 0 0 1 1 3 6 8 6 5 5 8 10 11 12 13 12 9 6 4 4 5 6 7 7 5 4 2 1 3 3 3 3 3 3 3 3 3 3 2 2 3 3
0 0 0 0 0 0 0 0 1 2 2 4 6 8 7 5 5 6 9 10 10 10 9 8 6 5 4 5 7 7 6 5 5 3 3 3 3 2 2 3 3 3 3 3 3 4 4 3 2
0 0 0 0 0 0 0 0 1 1 2 4 6 7 7 6 4 4 6 7 6 5 6 6 6 6 6 5 6 6 6 5 5 4 4 4 4 3 3 3 3 3 3 3 3 4 4 3 2
0 0 0 0 0 0 0 0 0 0 1 1 3 4 5 4 3 2 3 3 2 3 5 5 5 5 5 4 4 5 5 5 6 6 6 5 5 4 3 3 3 3 3 3 3 3 3 2 1
0 0 0 0 0 0 0 0 0 0 0 0 1 2 3 3 1 1 1 1 1 2 3 4 4 4 4 4 4 4 4 4 5 6 6 5 4 3 3 3 3 3 3 3 2 2 1 1 0
0 0 0 0 0 0 0 0 0 0 0 0 0 1 3 2 1 0 0 0 0 1 3 3 4 4 3 4 4 3 4 4 4 5 5 3 2 2 3 3 3 3 3 1 1 1 0 0 0
0 0 0 0 0 0 0 0 0 0 0 0 0 1 2 2 1 0 0 0 0 1 2 4 5 4 3 3 4 4 5 5 4 4 4 3 2 2 3 3 3 3 2 1 0 0 0 0 0

GEFSSGP_con_prob3kmehi_228.txt.gz
EHI
0 0 0 0 0 0 0 0 0 0 0 1 2 2 3 3 3 2 2 4 11 23 31 35 37 40 44 45 45 48 52 55 55 53 51 48 43 35 24 17 16 15 12 10 10 10 9 9 8
0 0 0 0 0 0 0 0 0 0 1 3 3 3 3 3 3 2 2 6 14 24 31 35 37 41 45 48 48 49 52 52 50 48 48 46 40 32 23 17 16 15 13 10 9 9 8 6 5
0 0 0 0 0 0 0 0 0 1 3 5 4 3 2 2 2 2 3 9 17 25 28 32 38 42 45 49 52 54 55 52 48 46 46 42 35 27 20 16 15 15 13 10 8 7 5 4 4
0 0 0 0 0 0 0 0 1 3 5 5 4 2 1 2 2 2 5 13 21 25 26 31 40 44 46 48 52 55 56 53 49 46 42 36 29 23 17 13 12 13 12 9 6 4 4 3 3
0 0 0 0 0 0 0 0 2 4 5 4 3 2 2 3 3 4 8 15 23 26 27 34 43 47 46 46 47 50 50 48 46 43 36 30 24 19 14 10 8 9 10 7 3 3 3 3 3
0 0 0 0 0 0 0 1 2 3 4 3 3 4 4 4 5 7 10 16 21 25 28 36 44 46 44 41 40 42 44 43 41 36 30 24 21 18 14 9 6 5 5 4 2 1 2 3 3
0 0 0 0 0 0 0 1 2 3 2 2 4 6 6 6 8 12 15 16 19 22 28 34 40 42 40 38 36 36 39 39 36 31 26 22 19 16 12 8 5 3 3 2 1 0 1 2 3
0 0 0 0 0 0 0 1 3 4 4 4 5 6 8 11 17 21 20 18 18 20 26 32 37 38 37 37 37 35 34 32 30 26 23 19 15 13 10 7 5 3 3 3 1 1 1 1 2
0 0 0 0 0 0 0 1 3 6 8 8 7 6 10 18 24 25 23 20 19 21 24 29 33 35 35 35 36 34 29 25 22 22 21 17 13 11 9 8 5 4 3 3 2 2 1 1 1
0 0 0 0 0 0 0 1 3 6 8 9 7 9 15 22 24 23 21 20 20 22 24 25 28 31 30 28 28 28 26 21 17 18 20 17 13 11 10 8 6 4 4 3 2 2 1 1 1
0 0 0 0 0 0 0 0 1 3 5 5 6 11 18 21 20 20 19 18 18 21 23 22 22 25 24 22 22 23 22 19 17 18 19 18 16 13 10 9 8 7 5 4 3 3 3 3 3
0 0 0 0 0 0 0 0 0 1 2 3 6 12 18 18 18 20 20 18 18 21 22 20 19 20 20 19 19 20 19 17 17 18 19 19 18 15 12 10 9 9 6 5 5 5 5 5 5
0 0 0 0 0 0 0 0 0 1 2 4 7 12 14 14 16 17 18 18 18 20 20 19 19 19 18 16 15 14 13 13 15 17 18 18 16 14 12 11 10 8 6 4 5 5 5 4 4
0 0 0 0 0 0 0 0 0 1 3 5 8 9 10 11 11 12 13 15 15 16 18 18 18 18 17 14 10 7 6 7 10 13 14 14 13 12 12 11 10 8 6 4 4 4 4 3 3
0 0 0 0 0 0 0 0 0 1 4 6 7 7 8 8 8 8 10 11 12 14 16 18 18 17 15 11 7 5 5 5 6 7 10 12 11 11 11 11 10 9 7 5 4 4 3 3 2
0 0 0 0 0 0 0 0 0 1 5 7 7 6 6 6 4 4 6 9 12 14 17 18 17 15 12 9 5 5 6 6 5 6 8 10 10 10 11 11 10 9 7 5 4 3 3 3 3
0 0 0 0 0 0 0 0 0 2 5 7 6 6 6 5 2 1 2 5 9 12 15 16 15 13 11 7 4 4 4 5 6 6 6 7 9 9 9 9 9 8 7 5 4 3 3 3 3
0 0 0 0 0 0 0 0 1 3 5 5 4 4 4 3 2 0 0 1 3 7 10 12 12 11 10 7 4 3 2 2 3 3 2 3 5 6 6 6 6 6 5 4 3 3 3 3 3
0 0 0 0 0 0 0 0 1 2 4 3 2 1 2 1 1 0 1 1 1 3 6 8 9 8 7 5 4 3 2 0 0 0 0 1 2 2 2 2 3 4 4 3 3 3 3 3 3
0 0 0 0 0 0 0 0 0 1 1 1 0 0 1 0 0 1 2 2 1 2 4 6 6 6 5 3 2 2 1 0 0 0 0 0 0 0 0 0 1 2 3 3 3 3 3 3 2
0 0 0 0 0 0 0 0 0 0 0 0 0 0 1 1 1 3 4 3 2 2 2 4 6 6 4 2 1 1 0 0 0 0 0 0 0 0 0 0 0 1 1 2 3 3 3 3 2
0 0 0 0 0 0 0 0 0 1 1 1 0 0 1 2 3 5 5 4 3 2 2 3 4 4 3 2 1 0 0 0 0 1 0 0 0 0 0 0 0 0 0 1 1 2 3 3 3
0 0 0 0 0 0 0 0 0 1 2 1 0 0 1 1 3 5 6 5 4 3 2 2 2 1 1 1 1 0 0 0 0 0 0 0 0 0 0 0 0 0 0 0 0 1 1 2 3
0 0 0 0 0 0 0 0 0 1 1 0 0 0 1 1 3 4 6 5 4 3 3 2 0 0 0 0 0 0 0 0 0 0 0 0 0 0 0 0 0 0 0 0 0 0 0 2 3
0 0 0 0 0 0 0 0 0 0 0 0 0 0 1 2 2 3 4 4 3 3 3 2 0 0 0 0 0 0 0 0 0 0 0 0 0 0 0 0 0 0 0 0 0 0 1 1 2
0 0 0 0 0 0 0 0 0 0 0 0 0 0 1 1 1 1 2 2 3 2 2 1 0 0 0 0 0 1 1 0 0 0 0 0 0 0 0 0 0 0 0 0 0 1 1 1 1
0 0 0 0 0 0 0 0 0 0 0 0 0 0 0 0 0 0 0 1 2 1 0 0 0 0 0 0 1 2 2 1 0 0 0 0 0 0 0 0 0 0 0 0 0 0 0 0 1
0 0 0 0 0 0 0 0 0 0 0 0 0 0 0 0 0 0 0 0 0 0 0 0 0 0 0 0 1 2 2 1 0 0 0 0 0 0 1 1 0 0 0 0 0 0 0 1 2
0 0 0 0 0 0 0 0 0 0 0 0 0 0 0 0 0 0 0 0 0 0 0 0 0 0 0 0 0 1 1 0 0 0 0 0 0 0 1 1 0 0 0 0 0 0 0 1 2
0 0 0 0 0 0 0 0 0 0 0 0 0 0 0 0 0 0 0 0 0 0 0 0 0 0 0 0 0 0 0 0 0 0 0 0 0 0 1 1 0 0 0 0 0 0 1 1 1

GEFSSGP_con_prob3kmehi_234.txt.gz
EHI
0 0 0 0 0 0 0 0 0 0 0 0 0 1 2 3 2 2 5 6 6 13 23 29 32 32 31 30 33 40 47 50 51 50 44 35 29 24 19 16 15 15 15 15 12 9 6 4 3
0 0 0 0 0 0 0 0 0 0 0 0 0 1 3 3 3 4 6 7 8 13 22 28 32 33 33 32 34 41 48 52 54 51 44 36 29 25 20 17 16 15 16 15 12 9 7 4 3
0 0 0 0 0 0 0 0 0 0 0 0 0 1 2 3 4 5 7 9 11 13 18 26 31 34 35 34 35 42 48 52 53 49 42 35 29 23 19 16 15 15 16 15 12 10 8 5 3
0 0 0 0 0 0 0 0 0 0 0 0 0 0 2 4 6 7 7 9 11 11 15 25 33 36 38 36 36 40 44 46 45 42 37 31 26 21 17 15 14 14 14 13 13 12 9 6 4
0 0 0 0 0 0 0 0 0 0 0 0 0 1 2 4 6 7 6 6 7 7 12 25 34 38 37 36 35 36 37 37 37 36 32 27 23 19 17 15 14 13 12 11 12 12 10 6 4
0 0 0 0 0 0 0 0 0 0 0 0 0 1 4 5 5 5 4 2 2 3 11 23 31 32 32 33 33 32 31 31 32 31 28 24 22 20 19 17 16 15 13 11 10 9 8 5 4
0 0 0 0 0 0 0 0 0 0 0 1 1 2 5 7 6 5 4 3 2 3 9 20 25 24 25 28 28 27 26 28 28 26 23 22 21 20 19 18 18 17 14 11 8 6 5 5 4
0 0 0 0 0 0 0 0 0 0 1 2 3 4 7 9 9 8 7 7 7 7 10 17 21 20 20 22 23 23 23 25 24 20 18 18 17 16 15 16 17 17 13 8 5 5 4 5 5
0 0 0 0 0 0 0 0 0 1 2 3 5 7 10 11 11 11 11 12 13 12 13 17 20 19 17 17 19 21 21 20 18 14 14 13 12 10 10 12 14 14 10 7 5 4 4 3 2
0 0 0 0 0 0 0 1 1 2 2 4 6 10 12 12 12 12 13 15 16 16 17 20 21 19 17 18 21 22 20 17 13 12 11 11 11 11 9 10 12 10 8 6 5 4 3 2 1
0 0 0 0 0 0 1 2 3 3 3 4 7 10 12 12 13 13 15 17 17 16 19 21 22 20 20 22 24 23 22 19 14 12 12 12 14 14 13 13 13 9 7 6 6 4 2 2 2
0 0 0 0 0 0 1 2 3 3 4 5 6 7 8 10 13 15 18 20 18 16 19 22 22 22 24 26 25 24 22 21 18 16 14 14 15 16 15 16 14 12 9 9 8 6 3 1 1
0 0 0 0 0 0 0 1 2 3 4 5 4 4 5 8 12 16 19 21 18 17 20 23 23 23 26 29 27 23 20 20 19 18 16 15 15 15 16 17 16 15 14 12 10 8 4 1 1
0 0 0 0 0 0 0 0 2 3 3 4 4 4 4 7 11 15 18 18 17 17 20 23 24 24 26 27 25 20 16 17 17 17 17 15 14 14 15 16 16 16 15 14 11 8 6 4 3
0 0 0 0 0 0 0 0 1 2 3 5 6 6 6 7 10 13 14 14 15 18 21 23 23 23 23 21 19 17 15 13 13 15 16 14 13 13 14 14 15 15 14 13 11 9 7 6 5
0 0 0 0 0 0 0 0 1 1 2 4 5 6 6 7 8 10 12 14 17 22 25 24 21 20 18 17 17 18 17 14 13 14 15 14 13 13 13 13 14 15 13 11 10 9 7 5 4
0 0 0 0 0 0 0 1 1 1 2 2 3 4 5 6 8 10 13 16 18 23 26 25 22 19 17 17 18 20 20 16 14 15 16 15 14 13 13 13 14 15 14 11 10 10 8 5 4
0 0 0 0 0 0 0 1 2 2 2 1 1 2 3 4 7 10 14 16 17 19 23 25 26 24 21 19 18 17 16 14 13 13 14 14 13 11 11 10 11 12 13 13 12 12 10 7 7
0 0 0 0 0 0 1 2 2 2 2 1 1 1 2 3 6 11 13 13 13 14 18 23 25 24 22 19 16 13 11 9 9 9 10 10 9 7 6 7 9 11 13 13 12 12 10 9 10
0 0 0 0 0 1 2 3 3 2 2 3 3 3 3 4 6 11 12 10 9 10 13 16 17 17 17 16 14 12 9 7 6 7 7 6 5 4 4 5 8 11 12 10 9 10 8 8 10
0 0 0 0 0 1 2 3 3 3 3 4 4 4 3 3 5 9 9 7 6 7 9 11 14 14 13 13 12 12 10 7 6 7 7 5 4 5 6 6 7 9 10 9 9 9 7 6 8
0 0 0 0 0 0 1 1 3 3 3 4 5 4 2 2 3 6 7 6 6 8 8 11 14 14 12 10 9 9 9 7 6 7 8 7 6 6 8 8 7 8 10 10 10 10 8 7 8
0 0 0 0 0 0 0 1 2 3 4 5 5 3 1 0 1 3 6 7 9 9 9 10 13 15 13 10 7 7 7 6 7 9 10 9 7 7 8 9 9 10 10 10 11 10 10 9 10
0 0 0 0 0 0 0 0 1 3 3 4 3 2 1 0 1 2 5 9 11 11 10 9 11 14 14 11 8 7 7 7 9 12 13 10 7 7 7 8 10 11 11 11 12 11 10 10 11
0 0 0 0 0 0 0 0 1 2 3 3 2 1 0 0 1 2 5 9 12 12 11 9 9 10 11 9 8 9 10 9 10 13 13 9 7 7 7 7 8 9 9 10 11 10 9 9 10
0 0 0 0 0 0 0 0 0 1 1 2 1 0 0 1 1 2 5 8 11 12 12 10 8 8 7 6 7 10 11 10 9 10 9 7 6 5 5 5 6 6 7 7 8 8 8 8 9
0 0 0 0 0 0 0 0 0 0 0 1 1 0 0 1 2 2 4 7 10 11 11 10 9 8 6 4 5 6 8 8 8 7 6 5 3 2 3 5 6 6 5 5 6 7 7 7 7
0 0 0 0 0 0 0 0 0 0 0 0 0 0 0 1 2 3 4 6 7 8 9 9 8 7 5 4 4 4 5 6 6 5 3 3 2 2 3 5 5 5 5 5 6 7 7 6 5
0 0 0 0 0 0 0 0 0 0 0 0 0 0 0 1 1 2 4 4 4 4 4 4 4 3 2 3 4 4 4 5 5 3 2 2 2 3 5 5 4 4 4 4 4 5 4 4 4
0 0 0 0 0 0 0 0 0 0 0 0 0 1 1 1 1 1 2 3 3 2 1 1 1 1 1 2 3 5 4 4 4 2 1 2 3 3 4 5 4 3 3 3 2 2 1 2 3

GEFSSGP_con_prob3kmehi_240.txt.gz
EHI
0 0 0 0 0 0 0 0 0 1 1 1 4 7 9 8 7 8 14 26 34 31 26 28 30 30 30 28 23 18 16 16 15 12 9 9 8 7 8 9 10 10 9 8 6 4 3 3 3
0 0 0 0 0 0 0 1 1 1 1 2 5 7 8 7 5 7 15 27 33 31 27 28 30 30 30 29 24 20 18 17 16 13 11 10 9 9 9 9 9 9 9 8 7 6 5 4 4
0 0 0 0 0 0 1 2 2 2 1 3 5 6 6 6 5 8 16 26 32 32 29 31 34 33 31 29 25 21 20 18 16 15 14 13 12 11 10 9 9 9 8 8 9 9 9 7 4
0 0 0 0 0 0 1 2 2 1 1 3 6 7 8 9 9 12 17 24 29 31 31 34 38 37 32 28 24 22 20 18 16 15 15 15 14 13 12 11 10 9 9 9 11 12 12 9 6
0 0 0 0 0 1 1 1 1 0 1 4 7 10 12 11 12 14 16 19 25 30 33 36 39 39 35 29 25 22 19 17 16 16 15 14 14 14 13 13 11 10 10 10 11 12 12 10 8
0 0 0 0 1 2 1 0 0 0 3 7 9 11 11 10 11 14 14 14 18 28 35 37 38 39 37 32 27 24 20 17 17 16 15 14 13 12 12 12 12 12 11 10 11 13 12 10 8
0 0 0 0 1 2 1 1 1 1 4 7 8 9 10 10 14 15 12 11 15 26 34 34 34 34 34 32 28 26 23 20 18 15 14 14 13 11 10 10 12 13 12 11 12 13 12 9 7
0 0 0 0 1 1 1 1 2 3 4 5 6 9 13 16 17 16 13 11 15 24 29 30 28 28 28 26 25 26 24 20 16 14 14 14 12 10 8 9 11 13 13 13 13 13 11 8 6
0 0 0 0 0 0 0 1 3 5 5 6 8 12 19 21 20 18 14 12 16 22 25 25 26 25 22 22 24 25 22 17 14 13 13 13 11 8 7 8 12 15 14 14 14 14 11 7 5
0 0 0 0 0 0 1 1 3 5 7 10 13 17 20 21 20 18 15 14 17 21 21 23 26 24 20 23 29 27 22 17 14 13 13 13 12 9 8 11 14 16 15 14 14 13 10 6 4
0 0 0 0 0 1 2 2 3 4 6 10 15 17 18 19 18 15 14 15 18 21 22 24 29 29 28 31 34 31 26 22 19 17 17 16 15 15 14 15 16 16 13 13 13 12 9 6 5
0 0 0 0 0 1 3 3 3 4 6 9 12 14 16 18 16 13 13 16 20 24 27 31 37 39 39 39 35 30 28 26 24 23 22 21 20 19 18 18 18 16 14 14 14 11 8 6 6
0 0 0 1 1 2 2 3 3 4 5 7 10 12 15 17 17 17 16 20 26 30 35 39 43 45 45 41 34 29 29 29 28 26 24 23 21 19 18 19 20 18 16 15 14 11 8 8 8
0 0 0 1 2 2 1 2 3 4 5 7 8 10 12 14 17 20 22 25 33 38 39 41 44 45 45 42 37 33 33 32 30 27 23 21 19 17 17 17 17 15 14 14 13 10 9 10 10
0 0 0 1 1 1 1 1 2 3 4 5 6 7 9 12 15 19 24 31 39 43 43 41 41 44 46 45 41 38 34 31 29 26 24 20 17 16 17 15 13 11 12 13 12 10 9 8 8
0 0 0 0 0 0 0 1 2 2 2 3 4 5 7 11 14 16 24 35 42 45 46 43 41 44 47 46 43 38 31 27 26 27 25 21 17 16 16 14 11 11 12 12 11 10 7 4 2
0 0 0 0 0 0 0 1 2 2 1 1 2 4 7 11 14 16 23 33 41 44 45 43 42 44 47 46 43 37 30 25 26 26 24 21 17 14 14 13 13 14 13 11 9 8 6 4 2
0 0 0 0 0 0 0 1 2 2 1 0 1 4 7 12 16 18 21 29 35 39 42 43 43 46 47 45 43 38 30 25 23 22 21 20 16 13 12 13 15 17 14 10 8 7 6 6 6
0 0 0 0 0 0 0 0 2 3 2 1 2 5 8 13 17 21 22 25 29 33 38 41 44 46 47 44 42 37 30 25 20 17 16 17 16 13 12 14 17 18 14 12 10 8 6 7 7
0 0 0 0 0 0 0 1 3 4 3 3 5 8 10 12 17 22 22 21 25 30 33 38 42 44 44 42 38 34 29 24 17 13 13 15 16 14 13 14 17 17 15 13 12 9 6 6 7
0 0 0 0 0 0 0 1 3 6 5 4 6 10 11 10 13 18 19 19 23 29 31 34 38 40 40 37 34 29 25 20 15 11 12 14 15 14 14 14 15 16 14 12 11 9 7 7 7
0 0 0 0 0 0 0 1 4 7 7 5 6 9 9 7 8 12 16 18 21 26 31 35 38 37 35 33 30 26 21 16 13 11 11 14 15 14 14 14 14 13 12 10 10 9 9 9 8
0 0 0 0 0 0 0 0 3 6 7 6 7 7 7 5 6 9 13 17 19 24 31 36 38 37 33 31 28 25 19 15 13 11 12 14 14 13 13 13 12 11 10 10 10 10 10 9 9
0 0 0 0 0 0 0 1 2 5 6 7 7 6 6 6 6 9 12 16 18 21 27 32 35 34 32 29 27 24 20 17 15 13 13 13 14 13 11 11 11 11 10 10 11 10 10 9 8
0 0 0 0 0 0 0 1 3 5 6 6 6 6 6 5 6 8 12 17 18 19 23 27 30 31 29 28 25 22 20 17 16 15 14 14 13 12 10 9 10 10 10 10 11 11 9 7 5
0 0 0 0 0 0 0 2 3 4 4 4 4 5 4 5 5 7 11 16 17 19 21 24 27 29 28 26 22 19 17 16 15 16 16 14 12 10 8 8 9 10 10 10 11 10 8 5 5
0 0 0 0 0 0 1 3 4 4 3 4 5 4 4 4 5 7 10 14 16 18 21 23 25 26 25 22 18 16 15 16 15 15 15 12 10 9 7 8 9 10 10 10 9 8 5 5 6
0 0 0 0 0 0 1 3 4 3 4 5 5 5 5 4 4 7 9 12 14 15 18 20 21 21 20 16 15 15 15 16 15 13 12 10 9 8 8 8 9 10 10 9 8 5 3 3 4
0 0 0 0 0 0 0 2 3 3 3 4 6 6 5 4 4 5 7 9 10 10 12 16 18 17 15 12 13 17 17 15 14 13 11 10 8 8 8 8 7 7 8 7 5 3 1 1 1
0 0 0 0 0 0 1 2 3 3 3 4 6 6 5 4 3 4 5 6 7 7 9 13 15 15 12 11 14 18 19 16 13 13 12 10 9 7 7 7 5 4 5 4 2 1 0 0 0

GEFSSGP_con_prob3kmehi_246.txt.gz
EHI
0 0 0 0 0 0 0 0 0 0 0 1 5 11 10 4 1 1 1 2 5 9 13 20 32 36 33 28 24 20 15 10 6 5 6 7 8 8 9 10 11 9 5 2 3 2 1 2 2
0 0 0 0 0 0 0 0 0 0 0 1 5 10 10 4 1 1 3 6 11 14 14 20 31 36 33 28 23 21 16 11 7 6 6 7 8 9 10 10 10 9 6 4 3 3 1 1 1
0 0 0 0 0 0 0 0 0 0 0 1 5 8 7 3 1 3 8 13 17 18 16 22 33 36 32 28 25 22 19 15 12 11 9 8 9 10 9 8 9 8 7 6 4 3 1 0 0
0 0 0 0 0 0 0 0 0 0 1 3 7 9 6 3 4 10 17 20 20 18 17 26 37 37 30 26 25 24 21 18 16 15 14 12 11 9 7 7 7 7 7 6 4 2 1 0 0
0 0 0 0 0 0 0 0 0 1 2 6 11 13 8 6 12 19 21 19 17 16 18 28 39 37 31 27 24 24 22 19 18 18 16 13 11 9 8 7 6 6 5 4 2 1 0 0 0
0 0 0 0 0 0 0 0 0 1 4 8 12 15 12 11 16 19 19 16 15 15 17 25 34 36 34 32 28 25 22 19 18 18 16 13 9 9 9 8 7 5 4 3 1 1 0 0 1
0 0 0 0 0 0 0 0 0 1 5 8 11 13 12 14 18 20 20 20 19 18 19 22 26 29 33 34 31 28 24 21 18 16 14 11 8 8 9 8 7 5 4 3 2 2 1 1 2
0 0 0 0 0 0 0 0 0 1 5 8 9 9 10 16 24 26 24 23 21 20 21 21 22 23 25 27 27 26 25 21 16 13 11 8 6 6 7 7 7 6 5 4 3 3 3 3 3
0 0 0 0 0 0 1 1 0 1 5 7 8 8 13 21 28 29 26 22 19 18 19 20 21 21 20 19 19 20 20 16 12 9 7 6 4 4 5 6 7 6 5 4 3 4 3 3 3
0 0 0 0 0 1 2 2 1 2 4 6 8 11 18 25 27 26 25 21 16 16 15 16 17 17 15 15 15 16 14 11 10 8 6 4 3 3 4 5 6 5 4 4 3 3 3 3 3
0 0 0 0 1 2 3 3 3 3 5 6 9 14 20 22 21 21 22 20 17 14 13 12 11 10 9 11 13 14 12 8 7 7 6 6 4 3 3 4 5 4 4 4 4 3 3 3 3
0 0 0 0 1 2 4 4 4 4 5 6 9 14 18 17 15 17 20 21 19 15 12 10 9 7 6 8 11 12 9 5 4 6 7 7 6 4 3 3 4 3 3 3 3 3 3 3 3
0 0 0 0 0 2 4 4 3 4 5 6 9 14 18 17 16 18 21 23 22 18 13 11 11 10 9 9 9 8 5 2 3 6 7 7 7 6 5 4 4 2 1 2 3 3 2 2 2
0 0 0 0 0 1 2 2 2 4 6 8 11 15 17 18 18 19 21 22 20 16 12 10 12 13 11 10 6 4 3 1 2 4 5 6 6 6 6 5 4 3 2 2 3 2 1 1 1
0 0 0 0 0 0 0 1 2 4 6 9 11 13 15 16 17 17 18 18 16 13 11 10 11 13 12 9 5 2 2 2 2 3 4 4 4 4 4 4 4 3 3 2 2 2 1 0 0
0 0 0 0 0 0 0 1 3 4 6 8 8 9 11 12 12 12 13 14 13 11 11 11 12 13 13 10 7 4 4 4 5 5 4 4 3 3 3 3 3 3 3 1 1 1 1 1 0
0 0 0 0 0 1 1 2 3 4 5 5 5 6 8 8 7 8 9 11 10 10 10 11 11 13 13 11 9 7 6 5 5 6 5 4 3 3 3 3 3 3 3 1 0 1 2 1 0
0 0 0 0 1 2 2 2 2 3 4 4 4 4 6 5 4 5 7 8 8 8 9 9 10 11 11 10 9 7 6 4 4 4 4 3 3 3 3 3 3 3 3 2 1 1 1 1 0
0 0 0 1 2 3 2 1 1 2 3 4 3 3 4 4 4 4 4 6 8 8 8 8 9 10 10 9 8 7 5 3 2 2 2 3 3 3 3 3 3 3 3 2 1 1 0 0 0
0 0 0 1 1 2 1 1 2 3 4 4 3 4 3 3 3 2 2 5 8 8 8 8 9 10 10 10 9 7 5 2 1 1 1 1 2 3 3 2 2 2 2 1 1 0 0 0 0
0 0 0 0 0 0 0 1 1 2 3 4 4 5 4 3 3 2 3 6 7 7 8 9 10 10 11 10 9 7 4 2 1 0 0 0 1 1 2 2 2 1 2 1 0 0 0 0 0
0 0 0 0 0 0 0 0 1 2 3 4 5 5 4 4 4 5 7 8 7 7 8 9 9 10 10 10 9 6 4 3 1 0 0 0 0 0 1 1 1 1 2 1 0 0 0 0 0
0 0 0 0 0 0 0 1 2 3 3 4 5 6 5 5 6 8 10 10 8 7 8 9 10 10 9 9 8 6 4 3 2 1 1 0 0 0 0 1 2 2 2 1 0 0 0 0 0
0 0 0 0 0 0 0 1 2 3 3 3 5 6 6 6 6 7 9 10 9 8 8 9 10 9 8 7 6 4 3 3 3 3 2 1 0 0 0 1 2 3 3 2 1 1 0 0 0
0 0 0 0 0 0 0 0 1 3 3 3 5 7 6 5 4 5 6 8 9 9 9 9 8 8 7 5 4 3 3 3 3 2 2 1 0 0 0 0 1 2 2 2 2 2 1 0 0
0 0 0 0 0 0 0 0 1 3 3 3 4 6 6 4 3 3 4 5 6 7 7 7 7 7 6 4 3 3 2 2 1 1 1 0 0 0 0 0 0 1 1 1 1 2 1 0 0
0 0 0 0 0 0 0 1 2 3 3 3 4 6 6 3 1 3 3 4 4 4 4 5 6 7 5 3 2 1 1 1 0 0 0 0 0 0 0 0 0 0 0 0 0 1 1 0 0
0 0 0 0 0 0 0 1 2 3 3 3 4 6 6 3 1 2 3 3 2 2 4 4 5 5 4 2 1 0 0 0 0 0 0 0 0 0 0 0 0 0 0 0 0 0 0 0 0
0 0 0 0 0 0 0 0 1 3 3 3 4 5 4 2 1 2 3 1 1 2 3 4 4 4 3 2 1 1 0 0 0 0 0 0 0 0 0 0 0 0 0 0 0 0 0 0 0
0 0 0 0 0 0 0 0 1 2 3 3 4 3 2 2 2 2 2 1 0 1 2 3 3 3 3 2 2 2 1 0 0 0 0 0 0 0 0 0 0 0 0 0 0 0 0 0 0